When you browse on this site, cookies collect data to enhance your experience and personalize the content and advertising you see.
Visit our Privacy Policy to learn more. By continuing to use the site, you agree to this use of cookies and data.
  • In Österreich
  • Länderverzeichnis
  • Für 7 Tage
  • Wassertemperatur
  • Satellitenkarten
  • Wetterkarte
  • News
  • Widgets
  • user-avatar
    Anmelden

    Stündliche Wetter Shusha

    Heute, 24 März, Sonntag

    Zeit Temperatur Niederschläge Wind Luftdruck Luftfeuchtigkeit
    00:00 +4°C° 0 mm 1 m/S 654 mmHg 70%
    01:00 +4°C° 0 mm 1 m/S 654 mmHg 69%
    02:00 +4°C° 0 mm 1 m/S 654 mmHg 69%
    03:00 +4°C° 0 mm 1 m/S 653 mmHg 61%
    04:00 +3°C° 0 mm 1 m/S 653 mmHg 63%
    05:00 +3°C° 0 mm 1 m/S 653 mmHg 65%
    06:00 +2°C° 0 mm 1 m/S 653 mmHg 67%
    07:00 +4°C° 0 mm 1 m/S 653 mmHg 62%
    08:00 +4°C° 0 mm 2 m/S 653 mmHg 57%
    09:00 +6°C° 0 mm 2 m/S 653 mmHg 56%
    10:00 +7°C° 0 mm 3 m/S 653 mmHg 56%
    11:00 +7°C° 0 mm 3 m/S 653 mmHg 56%
    12:00 +8°C° 0 mm 3 m/S 653 mmHg 56%
    13:00 +8°C° 0 mm 3 m/S 653 mmHg 59%
    14:00 +7°C° 0 mm 3 m/S 653 mmHg 62%
    15:00 +7°C° 0 mm 3 m/S 652 mmHg 66%
    16:00 +5°C° 0.3 mm 3 m/S 652 mmHg 72%
    17:00 +4°C° 0.3 mm 3 m/S 652 mmHg 77%
    18:00 +5°C° 0.3 mm 2 m/S 653 mmHg 83%
    19:00 +4°C° 1 mm 2 m/S 653 mmHg 85%
    20:00 +4°C° 1 mm 2 m/S 653 mmHg 87%
    21:00 +3°C° 1 mm 2 m/S 653 mmHg 89%
    22:00 +3°C° 0.4 mm 2 m/S 653 mmHg 88%
    23:00 +3°C° 0.4 mm 2 m/S 653 mmHg 87%

    Morgen, 25 März, Montag

    Zeit Temperatur Niederschläge Wind Luftdruck Luftfeuchtigkeit
    00:00 +2°C° 0.4 mm 2 m/S 654 mmHg 86%
    01:00 +2°C° 0.1 mm 2 m/S 654 mmHg 86%
    02:00 +3°C° 0.1 mm 1 m/S 653 mmHg 86%
    03:00 +2°C° 0.1 mm 1 m/S 653 mmHg 85%
    04:00 +2°C° 0.2 mm 1 m/S 653 mmHg 85%
    05:00 +2°C° 0.2 mm 1 m/S 653 mmHg 85%
    06:00 +2°C° 0.2 mm 1 m/S 653 mmHg 85%
    07:00 +2°C° 0.4 mm 1 m/S 654 mmHg 85%
    08:00 +2°C° 0.4 mm 1 m/S 654 mmHg 84%
    09:00 +3°C° 0.4 mm 1 m/S 654 mmHg 84%
    10:00 +2°C° 0.6 mm 2 m/S 654 mmHg 85%
    11:00 +2°C° 0.6 mm 2 m/S 654 mmHg 86%
    12:00 +1°C° 0.6 mm 3 m/S 654 mmHg 88%
    13:00 0°C° 0.6 mm 3 m/S 653 mmHg 87%
    14:00 0°C° 0.6 mm 3 m/S 653 mmHg 87%
    15:00 0°C° 0.6 mm 3 m/S 653 mmHg 87%
    16:00 -1°C° 0.4 mm 3 m/S 653 mmHg 88%
    17:00 -1°C° 0.4 mm 2 m/S 654 mmHg 89%
    18:00 -1°C° 0.4 mm 2 m/S 654 mmHg 90%
    19:00 -1°C° 0.6 mm 2 m/S 655 mmHg 90%
    20:00 -2°C° 0.6 mm 2 m/S 655 mmHg 90%
    21:00 0°C° 0.6 mm 1 m/S 655 mmHg 91%
    22:00 0°C° 0.5 mm 1 m/S 656 mmHg 91%
    23:00 0°C° 0.5 mm 1 m/S 656 mmHg 91%

    übermorgen, 26 März, Dienstag

    Zeit Temperatur Niederschläge Wind Luftdruck Luftfeuchtigkeit
    00:00 0°C° 0.5 mm 1 m/S 656 mmHg 91%
    01:00 0°C° 0.2 mm 1 m/S 656 mmHg 91%
    02:00 0°C° 0.2 mm 1 m/S 656 mmHg 92%
    03:00 0°C° 0.2 mm 1 m/S 656 mmHg 92%
    04:00 0°C° 0.1 mm 1 m/S 656 mmHg 92%
    05:00 0°C° 0.1 mm 1 m/S 656 mmHg 93%
    06:00 0°C° 0.1 mm 1 m/S 656 mmHg 94%
    07:00 +1°C° 0.1 mm 1 m/S 656 mmHg 92%
    08:00 +2°C° 0.1 mm 1 m/S 657 mmHg 90%
    09:00 +1°C° 0.1 mm 2 m/S 657 mmHg 88%
    10:00 +2°C° 0.1 mm 2 m/S 657 mmHg 87%
    11:00 +3°C° 0.1 mm 2 m/S 657 mmHg 85%
    12:00 +3°C° 0.1 mm 2 m/S 657 mmHg 84%
    13:00 +3°C° 0.1 mm 2 m/S 656 mmHg 85%
    14:00 +3°C° 0.1 mm 2 m/S 656 mmHg 86%
    15:00 +3°C° 0.1 mm 2 m/S 655 mmHg 88%
    16:00 +3°C° 0 mm 2 m/S 655 mmHg 89%
    17:00 +3°C° 0 mm 1 m/S 655 mmHg 90%
    18:00 +3°C° 0 mm 1 m/S 655 mmHg 91%
    19:00 +3°C° 0 mm 1 m/S 655 mmHg 92%
    20:00 +3°C° 0 mm 1 m/S 656 mmHg 93%
    21:00 +2°C° 0 mm 0 m/S 656 mmHg 94%
    22:00 +1°C° 0 mm 0 m/S 655 mmHg 92%
    23:00 +1°C° 0 mm 0 m/S 655 mmHg 91%

    27 März, Mittwoch

    Zeit Temperatur Niederschläge Wind Luftdruck Luftfeuchtigkeit
    00:00 +1°C° 0 mm 0 m/S 655 mmHg 89%
    01:00 +1°C° 0 mm 0 m/S 655 mmHg 89%
    02:00 +1°C° 0 mm 0 m/S 654 mmHg 89%
    03:00 +1°C° 0 mm 0 m/S 654 mmHg 89%
    04:00 +2°C° 0 mm 1 m/S 654 mmHg 87%
    05:00 +1°C° 0 mm 1 m/S 654 mmHg 85%
    06:00 +1°C° 0 mm 1 m/S 654 mmHg 84%
    07:00 +3°C° 0 mm 1 m/S 655 mmHg 80%
    08:00 +5°C° 0 mm 1 m/S 655 mmHg 76%
    09:00 +7°C° 0 mm 1 m/S 656 mmHg 72%
    10:00 +8°C° 0 mm 1 m/S 656 mmHg 70%
    11:00 +8°C° 0 mm 2 m/S 656 mmHg 67%
    12:00 +9°C° 0 mm 2 m/S 656 mmHg 65%
    13:00 +9°C° 0.1 mm 2 m/S 656 mmHg 65%
    14:00 +9°C° 0.1 mm 2 m/S 655 mmHg 64%
    15:00 +10°C° 0.1 mm 2 m/S 655 mmHg 64%
    16:00 +9°C° 0.1 mm 2 m/S 655 mmHg 68%
    17:00 +9°C° 0.1 mm 1 m/S 655 mmHg 72%
    18:00 +8°C° 0.1 mm 1 m/S 655 mmHg 76%
    19:00 +7°C° 0 mm 1 m/S 656 mmHg 76%
    20:00 +6°C° 0 mm 1 m/S 656 mmHg 75%
    21:00 +5°C° 0 mm 2 m/S 656 mmHg 75%
    22:00 +5°C° 0 mm 2 m/S 657 mmHg 72%
    23:00 +4°C° 0 mm 2 m/S 657 mmHg 69%

    28 März, Donnerstag

    Zeit Temperatur Niederschläge Wind Luftdruck Luftfeuchtigkeit
    00:00 +4°C° 0 mm 2 m/S 657 mmHg 66%
    01:00 +4°C° 0 mm 2 m/S 657 mmHg 68%
    02:00 +4°C° 0 mm 2 m/S 657 mmHg 69%
    03:00 +4°C° 0 mm 2 m/S 657 mmHg 70%
    04:00 +5°C° 0.2 mm 1 m/S 657 mmHg 73%
    05:00 +5°C° 0.2 mm 1 m/S 657 mmHg 75%
    06:00 +5°C° 0.2 mm 1 m/S 658 mmHg 78%
    07:00 +5°C° 0.4 mm 1 m/S 658 mmHg 79%
    08:00 +6°C° 0.4 mm 1 m/S 658 mmHg 80%
    09:00 +7°C° 0.4 mm 1 m/S 659 mmHg 81%
    10:00 +6°C° 0.2 mm 2 m/S 659 mmHg 80%
    11:00 +6°C° 0.2 mm 2 m/S 659 mmHg 79%
    12:00 +7°C° 0.2 mm 2 m/S 659 mmHg 78%
    13:00 +7°C° 0.5 mm 2 m/S 658 mmHg 81%
    14:00 +6°C° 0.5 mm 2 m/S 658 mmHg 83%
    15:00 +6°C° 0.5 mm 2 m/S 658 mmHg 85%
    16:00 +6°C° 1.8 mm 2 m/S 658 mmHg 88%
    17:00 +5°C° 1.8 mm 2 m/S 658 mmHg 90%
    18:00 +5°C° 1.8 mm 2 m/S 658 mmHg 93%
    19:00 +4°C° 1.4 mm 2 m/S 658 mmHg 94%
    20:00 +4°C° 1.4 mm 2 m/S 658 mmHg 94%
    21:00 +3°C° 1.4 mm 2 m/S 658 mmHg 94%
    22:00 +2°C° 0.3 mm 2 m/S 658 mmHg 94%
    23:00 +2°C° 0.3 mm 2 m/S 658 mmHg 94%

    29 März, Freitag

    Zeit Temperatur Niederschläge Wind Luftdruck Luftfeuchtigkeit
    00:00 +2°C° 0.3 mm 2 m/S 658 mmHg 95%
    01:00 +1°C° 0.1 mm 2 m/S 658 mmHg 94%
    02:00 +1°C° 0.1 mm 2 m/S 658 mmHg 94%
    03:00 +1°C° 0.1 mm 2 m/S 658 mmHg 94%
    04:00 +1°C° 0.2 mm 2 m/S 658 mmHg 94%
    05:00 -1°C° 0.2 mm 2 m/S 658 mmHg 94%
    06:00 -1°C° 0.2 mm 2 m/S 658 mmHg 94%
    07:00 +1°C° 0.2 mm 2 m/S 659 mmHg 93%
    08:00 +1°C° 0.2 mm 2 m/S 659 mmHg 92%
    09:00 +1°C° 0.2 mm 2 m/S 659 mmHg 91%
    10:00 +1°C° 0.1 mm 2 m/S 659 mmHg 90%
    11:00 +1°C° 0.1 mm 3 m/S 659 mmHg 89%
    12:00 +1°C° 0.1 mm 3 m/S 658 mmHg 87%
    13:00 +1°C° 0.1 mm 3 m/S 658 mmHg 88%
    14:00 +1°C° 0.1 mm 3 m/S 657 mmHg 88%
    15:00 +2°C° 0.1 mm 2 m/S 657 mmHg 88%
    16:00 +2°C° 0.1 mm 2 m/S 657 mmHg 89%
    17:00 +2°C° 0.1 mm 2 m/S 657 mmHg 91%
    18:00 +2°C° 0.1 mm 2 m/S 657 mmHg 92%
    19:00 +1°C° 0.1 mm 2 m/S 657 mmHg 93%
    20:00 +1°C° 0.1 mm 2 m/S 657 mmHg 94%
    21:00 +2°C° 0.1 mm 1 m/S 658 mmHg 95%
    22:00 +2°C° 0.1 mm 1 m/S 657 mmHg 95%
    23:00 +2°C° 0.1 mm 1 m/S 657 mmHg 95%
    Mehr zeigen